When you browse on this site, cookies collect data to enhance your experience and personalize the content and advertising you see.
Visit our Privacy Policy to learn more. By continuing to use the site, you agree to this use of cookies and data.
  • In Romania
  • List of Countries
  • For 7 days
  • Water Temperature
  • Satellite Maps
  • Weather Map
  • Weather Widgets
  • user-avatar
    Login

    Hourly Weather Novospasskoe

    Today, 26 March, Tuesday

    Time Temperature Precipitation Wind Pressure Humidity
    00:00 -4°C° 0 mm 3 mps 738 mmHg 85%
    01:00 -4°C° 0 mm 3 mps 738 mmHg 85%
    02:00 -4°C° 0 mm 3 mps 738 mmHg 85%
    03:00 -2°C° 0 mm 3 mps 737 mmHg 84%
    04:00 -2°C° 0.1 mm 3 mps 737 mmHg 86%
    05:00 -2°C° 0.1 mm 3 mps 737 mmHg 87%
    06:00 -1°C° 0.1 mm 2 mps 737 mmHg 89%
    07:00 -1°C° 0 mm 2 mps 736 mmHg 90%
    08:00 -1°C° 0 mm 2 mps 736 mmHg 92%
    09:00 -1°C° 0 mm 3 mps 736 mmHg 91%
    10:00 0°C° 0 mm 3 mps 736 mmHg 94%
    11:00 0°C° 0 mm 3 mps 736 mmHg 97%
    12:00 0°C° 0 mm 3 mps 736 mmHg 100%
    13:00 0°C° 0 mm 3 mps 736 mmHg 99%
    14:00 0°C° 0 mm 3 mps 736 mmHg 99%
    15:00 -1°C° 0 mm 4 mps 737 mmHg 99%
    16:00 -1°C° 0 mm 4 mps 737 mmHg 99%
    17:00 -1°C° 0 mm 4 mps 737 mmHg 99%
    18:00 -2°C° 0 mm 4 mps 737 mmHg 99%
    19:00 -2°C° 0 mm 4 mps 737 mmHg 97%
    20:00 -2°C° 0 mm 3 mps 738 mmHg 96%
    21:00 -2°C° 0 mm 3 mps 738 mmHg 94%
    22:00 -4°C° 0 mm 3 mps 738 mmHg 93%
    23:00 -4°C° 0 mm 2 mps 739 mmHg 92%

    Tomorrow, 27 March, Wednesday

    Time Temperature Precipitation Wind Pressure Humidity
    00:00 -5°C° 0 mm 2 mps 739 mmHg 91%
    01:00 -5°C° 0 mm 2 mps 739 mmHg 90%
    02:00 -6°C° 0 mm 2 mps 740 mmHg 89%
    03:00 -6°C° 0 mm 2 mps 740 mmHg 88%
    04:00 -6°C° 0 mm 2 mps 740 mmHg 88%
    05:00 -7°C° 0 mm 2 mps 740 mmHg 87%
    06:00 -7°C° 0 mm 2 mps 741 mmHg 87%
    07:00 -4°C° 0 mm 1 mps 741 mmHg 86%
    08:00 -3°C° 0 mm 1 mps 742 mmHg 86%
    09:00 -2°C° 0 mm 1 mps 742 mmHg 86%
    10:00 -1°C° 0 mm 1 mps 742 mmHg 88%
    11:00 0°C° 0 mm 1 mps 743 mmHg 91%
    12:00 +1°C° 0 mm 1 mps 743 mmHg 94%
    13:00 +1°C° 0 mm 1 mps 743 mmHg 95%
    14:00 +1°C° 0 mm 1 mps 743 mmHg 97%
    15:00 +2°C° 0 mm 1 mps 744 mmHg 99%
    16:00 +1°C° 0 mm 1 mps 744 mmHg 97%
    17:00 -2°C° 0 mm 2 mps 744 mmHg 96%
    18:00 -2°C° 0 mm 2 mps 744 mmHg 94%
    19:00 -3°C° 0 mm 2 mps 745 mmHg 91%
    20:00 -4°C° 0 mm 2 mps 745 mmHg 89%
    21:00 -5°C° 0 mm 2 mps 746 mmHg 86%
    22:00 -6°C° 0 mm 3 mps 746 mmHg 87%
    23:00 -7°C° 0 mm 3 mps 746 mmHg 88%

    Day after tomorrow, 28 March, Thursday

    Time Temperature Precipitation Wind Pressure Humidity
    00:00 -7°C° 0 mm 3 mps 746 mmHg 88%
    01:00 -7°C° 0 mm 3 mps 747 mmHg 90%
    02:00 -8°C° 0 mm 3 mps 747 mmHg 91%
    03:00 -8°C° 0 mm 3 mps 747 mmHg 92%
    04:00 -8°C° 0 mm 3 mps 747 mmHg 93%
    05:00 -8°C° 0 mm 3 mps 747 mmHg 93%
    06:00 -8°C° 0 mm 3 mps 748 mmHg 94%
    07:00 -8°C° 0 mm 4 mps 748 mmHg 92%
    08:00 -7°C° 0 mm 4 mps 748 mmHg 91%
    09:00 -6°C° 0 mm 5 mps 749 mmHg 89%
    10:00 -6°C° 0 mm 5 mps 749 mmHg 88%
    11:00 -5°C° 0 mm 5 mps 749 mmHg 87%
    12:00 -4°C° 0 mm 5 mps 750 mmHg 86%
    13:00 -4°C° 0 mm 5 mps 750 mmHg 85%
    14:00 -2°C° 0 mm 5 mps 750 mmHg 83%
    15:00 -2°C° 0 mm 5 mps 750 mmHg 82%
    16:00 -2°C° 0 mm 4 mps 750 mmHg 82%
    17:00 -2°C° 0 mm 3 mps 750 mmHg 82%
    18:00 -4°C° 0 mm 3 mps 750 mmHg 81%
    19:00 -5°C° 0 mm 3 mps 750 mmHg 81%
    20:00 -5°C° 0 mm 3 mps 750 mmHg 80%
    21:00 -6°C° 0 mm 3 mps 750 mmHg 80%
    22:00 -6°C° 0 mm 3 mps 750 mmHg 80%
    23:00 -6°C° 0 mm 3 mps 750 mmHg 81%

    29 March, Friday

    Time Temperature Precipitation Wind Pressure Humidity
    00:00 -5°C° 0 mm 2 mps 749 mmHg 81%
    01:00 -6°C° 0 mm 3 mps 749 mmHg 82%
    02:00 -6°C° 0 mm 3 mps 749 mmHg 83%
    03:00 -6°C° 0 mm 3 mps 749 mmHg 84%
    04:00 -5°C° 0 mm 3 mps 748 mmHg 87%
    05:00 -5°C° 0 mm 3 mps 748 mmHg 89%
    06:00 -5°C° 0 mm 3 mps 748 mmHg 92%
    07:00 -4°C° 0.2 mm 3 mps 748 mmHg 93%
    08:00 -3°C° 0.2 mm 4 mps 747 mmHg 94%
    09:00 -2°C° 0.2 mm 4 mps 747 mmHg 96%
    10:00 -1°C° 0.1 mm 3 mps 747 mmHg 97%
    11:00 0°C° 0.1 mm 3 mps 747 mmHg 98%
    12:00 0°C° 0.1 mm 3 mps 747 mmHg 99%
    13:00 +1°C° 0 mm 3 mps 747 mmHg 99%
    14:00 +1°C° 0 mm 3 mps 747 mmHg 99%
    15:00 +1°C° 0 mm 3 mps 747 mmHg 99%
    16:00 +1°C° 0 mm 3 mps 747 mmHg 98%
    17:00 +1°C° 0 mm 3 mps 747 mmHg 98%
    18:00 +1°C° 0 mm 3 mps 747 mmHg 98%
    19:00 0°C° 0 mm 3 mps 747 mmHg 97%
    20:00 0°C° 0 mm 3 mps 747 mmHg 95%
    21:00 -1°C° 0 mm 3 mps 747 mmHg 94%
    22:00 -1°C° 0 mm 3 mps 747 mmHg 94%
    23:00 -1°C° 0 mm 3 mps 747 mmHg 93%

    30 March, Saturday

    Time Temperature Precipitation Wind Pressure Humidity
    00:00 -1°C° 0 mm 3 mps 746 mmHg 93%
    01:00 -1°C° 0 mm 3 mps 746 mmHg 93%
    02:00 -1°C° 0 mm 3 mps 746 mmHg 92%
    03:00 -1°C° 0 mm 3 mps 746 mmHg 92%
    04:00 -1°C° 0 mm 3 mps 745 mmHg 92%
    05:00 -1°C° 0 mm 3 mps 745 mmHg 93%
    06:00 -2°C° 0 mm 4 mps 745 mmHg 93%
    07:00 -1°C° 0 mm 4 mps 745 mmHg 95%
    08:00 0°C° 0 mm 4 mps 745 mmHg 97%
    09:00 0°C° 0 mm 4 mps 745 mmHg 99%
    10:00 +1°C° 0 mm 4 mps 745 mmHg 99%
    11:00 +1°C° 0 mm 5 mps 744 mmHg 99%
    12:00 +2°C° 0 mm 5 mps 744 mmHg 98%
    13:00 +2°C° 0 mm 5 mps 744 mmHg 97%
    14:00 +3°C° 0 mm 5 mps 744 mmHg 97%
    15:00 +3°C° 0 mm 5 mps 744 mmHg 96%
    16:00 +4°C° 0 mm 4 mps 744 mmHg 96%
    17:00 +4°C° 0 mm 4 mps 744 mmHg 96%
    18:00 +3°C° 0 mm 4 mps 744 mmHg 95%
    19:00 +3°C° 0 mm 3 mps 744 mmHg 93%
    20:00 +2°C° 0 mm 3 mps 744 mmHg 90%
    21:00 +2°C° 0 mm 3 mps 744 mmHg 88%
    22:00 +2°C° 0 mm 3 mps 744 mmHg 87%
    23:00 +2°C° 0 mm 3 mps 744 mmHg 87%

    31 March, Sunday

    Time Temperature Precipitation Wind Pressure Humidity
    00:00 +2°C° 0 mm 3 mps 744 mmHg 86%
    01:00 +2°C° 0 mm 3 mps 744 mmHg 86%
    02:00 +1°C° 0 mm 3 mps 744 mmHg 87%
    03:00 +1°C° 0 mm 3 mps 744 mmHg 87%
    04:00 +1°C° 0 mm 3 mps 744 mmHg 88%
    05:00 +1°C° 0 mm 3 mps 744 mmHg 88%
    06:00 +1°C° 0 mm 3 mps 744 mmHg 88%
    07:00 +1°C° 0 mm 3 mps 744 mmHg 90%
    08:00 +2°C° 0 mm 3 mps 744 mmHg 92%
    09:00 +2°C° 0 mm 3 mps 744 mmHg 94%
    10:00 +3°C° 0 mm 4 mps 744 mmHg 92%
    11:00 +4°C° 0 mm 4 mps 744 mmHg 89%
    12:00 +5°C° 0 mm 4 mps 743 mmHg 87%
    13:00 +6°C° 0 mm 4 mps 743 mmHg 85%
    14:00 +7°C° 0 mm 4 mps 743 mmHg 82%
    15:00 +8°C° 0 mm 4 mps 743 mmHg 80%
    16:00 +7°C° 0 mm 4 mps 743 mmHg 80%
    17:00 +7°C° 0 mm 3 mps 743 mmHg 80%
    18:00 +7°C° 0 mm 3 mps 743 mmHg 81%
    19:00 +6°C° 0 mm 2 mps 744 mmHg 81%
    20:00 +6°C° 0 mm 2 mps 744 mmHg 81%
    21:00 +5°C° 0 mm 2 mps 744 mmHg 81%
    22:00 +6°C° 0 mm 1 mps 744 mmHg 82%
    23:00 +5°C° 0 mm 1 mps 744 mmHg 82%
    Show more